Disclaimer

Please do not use the information listed here in-flight or in-navigation, as they are not provided to us by the airports but are provided by volunteers, so they might be outdated.

Search


Regions


Airport information page

Radio informations:
Tower (TWR) - 120.4 MHz

Airport informations:
Latitude: 55° 53' 37.99" N
Longitude: 023° 23' 41.91" E
Elevation: 443 feet - 135 meters
Operating hours: Remarks
Operating agency: Military-civil joint use airport
Timezone: UTC+2(+3DT) - Last Sunday in March to last Sunday in October
Fuel: Jet fuel avaiable but type is unknown.

Runway information:
14R/32L - 10761 x 105 feet< - >3280 x 32 meters
14L/32R - 11483 x 148 feet< - >3500 x 45 meters

Recent METARs:
EYSA 160150Z AUTO 28009KT 9999NDV NSC M04/M05 Q0995 R32R/29//95
EYSA 160220Z AUTO 27008KT 9999NDV NCD M05/M06 Q0995 R32R/29//95
EYSA 160250Z 28008KT CAVOK M05/M05 Q0996 R32R/29//95 BLU NOSIG

Airport on the map: